• In Hungary
  • List of Countries
  • For 7 days
  • Water Temperature
  • Satellite Maps
  • Weather Map
  • News
  • Weather Widgets
  • user-avatar
    Login

    Hourly Weather Blagoevgrad

    Today, 19 June, Tuesday

    Time Temperature Precipitation Wind Pressure Humidity
    00:00 +19°C° 0.2 mm 1 mps 719 mmHg 88%
    01:00 +18°C° 0.2 mm 1 mps 719 mmHg 89%
    02:00 +18°C° 0.2 mm 1 mps 719 mmHg 90%
    03:00 +18°C° 0 mm 1 mps 719 mmHg 91%
    04:00 +18°C° 0 mm 1 mps 719 mmHg 91%
    05:00 +16°C° 0 mm 1 mps 720 mmHg 91%
    06:00 +19°C° 0 mm 1 mps 720 mmHg 86%
    07:00 +20°C° 0 mm 2 mps 720 mmHg 80%
    08:00 +23°C° 0 mm 2 mps 721 mmHg 74%
    09:00 +24°C° 0.2 mm 2 mps 721 mmHg 67%
    10:00 +26°C° 0.2 mm 2 mps 721 mmHg 61%
    11:00 +27°C° 0.2 mm 2 mps 721 mmHg 54%
    12:00 +28°C° 0.5 mm 2 mps 721 mmHg 52%
    13:00 +28°C° 0.5 mm 3 mps 721 mmHg 51%
    14:00 +29°C° 0.5 mm 3 mps 721 mmHg 49%
    15:00 +28°C° 0.1 mm 3 mps 721 mmHg 49%
    16:00 +28°C° 0.1 mm 3 mps 721 mmHg 49%
    17:00 +28°C° 0.1 mm 3 mps 721 mmHg 50%
    18:00 +26°C° 0.1 mm 2 mps 721 mmHg 55%
    19:00 +24°C° 0.1 mm 2 mps 721 mmHg 61%
    20:00 +21°C° 0.1 mm 2 mps 721 mmHg 67%
    21:00 +20°C° 0.1 mm 2 mps 721 mmHg 70%
    22:00 +20°C° 0.1 mm 1 mps 721 mmHg 72%
    23:00 +19°C° 0.1 mm 1 mps 722 mmHg 75%

    Tomorrow, 20 June, Wednesday

    Time Temperature Precipitation Wind Pressure Humidity
    00:00 +18°C° 0 mm 1 mps 722 mmHg 75%
    01:00 +18°C° 0 mm 1 mps 722 mmHg 75%
    02:00 +18°C° 0 mm 1 mps 722 mmHg 75%
    03:00 +16°C° 0 mm 1 mps 722 mmHg 75%
    04:00 +16°C° 0 mm 1 mps 722 mmHg 75%
    05:00 +16°C° 0 mm 1 mps 722 mmHg 75%
    06:00 +19°C° 0 mm 1 mps 722 mmHg 68%
    07:00 +21°C° 0 mm 2 mps 723 mmHg 62%
    08:00 +24°C° 0 mm 2 mps 723 mmHg 55%
    09:00 +26°C° 0 mm 2 mps 723 mmHg 50%
    10:00 +27°C° 0 mm 2 mps 723 mmHg 44%
    11:00 +29°C° 0 mm 3 mps 724 mmHg 38%
    12:00 +29°C° 0 mm 2 mps 723 mmHg 37%
    13:00 +30°C° 0 mm 2 mps 723 mmHg 36%
    14:00 +30°C° 0 mm 2 mps 723 mmHg 35%
    15:00 +30°C° 0 mm 2 mps 723 mmHg 36%
    16:00 +29°C° 0 mm 2 mps 722 mmHg 38%
    17:00 +29°C° 0 mm 2 mps 722 mmHg 39%
    18:00 +27°C° 0 mm 2 mps 722 mmHg 45%
    19:00 +25°C° 0 mm 2 mps 722 mmHg 51%
    20:00 +23°C° 0 mm 1 mps 722 mmHg 57%
    21:00 +22°C° 0 mm 1 mps 722 mmHg 60%
    22:00 +21°C° 0 mm 1 mps 722 mmHg 62%
    23:00 +19°C° 0 mm 1 mps 722 mmHg 65%

    Day after tomorrow, 21 June, Thursday

    Time Temperature Precipitation Wind Pressure Humidity
    00:00 +19°C° 0 mm 1 mps 722 mmHg 67%
    01:00 +19°C° 0 mm 1 mps 722 mmHg 68%
    02:00 +18°C° 0 mm 1 mps 722 mmHg 70%
    03:00 +18°C° 0 mm 1 mps 722 mmHg 71%
    04:00 +18°C° 0 mm 1 mps 722 mmHg 72%
    05:00 +16°C° 0 mm 1 mps 722 mmHg 73%
    06:00 +20°C° 0 mm 1 mps 722 mmHg 66%
    07:00 +23°C° 0 mm 1 mps 722 mmHg 59%
    08:00 +25°C° 0 mm 1 mps 722 mmHg 52%
    09:00 +27°C° 0 mm 1 mps 722 mmHg 49%
    10:00 +28°C° 0 mm 1 mps 722 mmHg 45%
    11:00 +30°C° 0 mm 1 mps 722 mmHg 42%
    12:00 +30°C° 0.1 mm 1 mps 721 mmHg 42%
    13:00 +30°C° 0.1 mm 1 mps 721 mmHg 42%
    14:00 +30°C° 0.1 mm 1 mps 720 mmHg 42%
    15:00 +30°C° 0.2 mm 1 mps 720 mmHg 44%
    16:00 +29°C° 0.2 mm 1 mps 720 mmHg 47%
    17:00 +29°C° 0.2 mm 1 mps 719 mmHg 49%
    18:00 +27°C° 0.2 mm 1 mps 719 mmHg 54%
    19:00 +25°C° 0.2 mm 1 mps 719 mmHg 58%
    20:00 +23°C° 0.2 mm 1 mps 719 mmHg 63%
    21:00 +22°C° 0.1 mm 1 mps 719 mmHg 66%
    22:00 +22°C° 0.1 mm 1 mps 719 mmHg 68%
    23:00 +21°C° 0.1 mm 1 mps 719 mmHg 71%

    22 June, Friday

    Time Temperature Precipitation Wind Pressure Humidity
    00:00 +20°C° 0 mm 1 mps 719 mmHg 73%
    01:00 +20°C° 0 mm 1 mps 718 mmHg 75%
    02:00 +19°C° 0 mm 1 mps 718 mmHg 77%
    03:00 +19°C° 0 mm 1 mps 718 mmHg 78%
    04:00 +18°C° 0 mm 1 mps 718 mmHg 78%
    05:00 +18°C° 0 mm 1 mps 717 mmHg 79%
    06:00 +21°C° 0 mm 1 mps 718 mmHg 72%
    07:00 +23°C° 0 mm 1 mps 718 mmHg 65%
    08:00 +25°C° 0 mm 1 mps 718 mmHg 58%
    09:00 +27°C° 0.1 mm 1 mps 718 mmHg 54%
    10:00 +28°C° 0.1 mm 1 mps 718 mmHg 50%
    11:00 +30°C° 0.1 mm 2 mps 718 mmHg 46%
    12:00 +30°C° 0.4 mm 2 mps 718 mmHg 45%
    13:00 +30°C° 0.4 mm 2 mps 718 mmHg 45%
    14:00 +31°C° 0.4 mm 2 mps 717 mmHg 44%
    15:00 +30°C° 0.5 mm 2 mps 717 mmHg 46%
    16:00 +30°C° 0.5 mm 2 mps 717 mmHg 49%
    17:00 +29°C° 0.5 mm 2 mps 717 mmHg 51%
    18:00 +27°C° 0.7 mm 2 mps 717 mmHg 58%
    19:00 +25°C° 0.7 mm 2 mps 717 mmHg 66%
    20:00 +23°C° 0.7 mm 2 mps 718 mmHg 73%
    21:00 +21°C° 0.4 mm 2 mps 718 mmHg 78%
    22:00 +19°C° 0.4 mm 2 mps 718 mmHg 83%
    23:00 +18°C° 0.4 mm 2 mps 718 mmHg 88%

    23 June, Saturday

    Time Temperature Precipitation Wind Pressure Humidity
    00:00 +17°C° 0.2 mm 2 mps 718 mmHg 88%
    01:00 +16°C° 0.2 mm 2 mps 718 mmHg 88%
    02:00 +16°C° 0.2 mm 2 mps 718 mmHg 89%
    03:00 +15°C° 0.1 mm 2 mps 718 mmHg 88%
    04:00 +15°C° 0.1 mm 2 mps 719 mmHg 88%
    05:00 +14°C° 0.1 mm 2 mps 719 mmHg 87%
    06:00 +16°C° 0 mm 2 mps 719 mmHg 81%
    07:00 +17°C° 0 mm 2 mps 719 mmHg 74%
    08:00 +19°C° 0 mm 2 mps 720 mmHg 68%
    09:00 +20°C° 0.1 mm 3 mps 720 mmHg 64%
    10:00 +21°C° 0.1 mm 3 mps 720 mmHg 60%
    11:00 +22°C° 0.1 mm 3 mps 720 mmHg 56%
    12:00 +22°C° 0.5 mm 3 mps 720 mmHg 60%
    13:00 +21°C° 0.5 mm 3 mps 720 mmHg 64%
    14:00 +20°C° 0.5 mm 3 mps 720 mmHg 68%
    15:00 +19°C° 0.4 mm 3 mps 720 mmHg 71%
    16:00 +18°C° 0.4 mm 3 mps 720 mmHg 74%
    17:00 +17°C° 0.4 mm 2 mps 720 mmHg 77%
    18:00 +17°C° 0.1 mm 2 mps 720 mmHg 78%
    19:00 +16°C° 0.1 mm 2 mps 720 mmHg 79%
    20:00 +16°C° 0.1 mm 2 mps 720 mmHg 81%
    21:00 +15°C° 0 mm 2 mps 721 mmHg 82%
    22:00 +15°C° 0 mm 2 mps 721 mmHg 83%
    23:00 +14°C° 0 mm 1 mps 721 mmHg 84%

    24 June, Sunday

    Time Temperature Precipitation Wind Pressure Humidity
    00:00 +14°C° 0 mm 1 mps 721 mmHg 85%
    01:00 +14°C° 0 mm 1 mps 721 mmHg 85%
    02:00 +13°C° 0 mm 1 mps 721 mmHg 86%
    03:00 +13°C° 0 mm 1 mps 721 mmHg 87%
    04:00 +13°C° 0 mm 1 mps 721 mmHg 87%
    05:00 +13°C° 0 mm 1 mps 721 mmHg 88%
    06:00 +14°C° 0 mm 1 mps 722 mmHg 81%
    07:00 +16°C° 0 mm 1 mps 722 mmHg 74%
    08:00 +18°C° 0 mm 2 mps 722 mmHg 68%
    09:00 +20°C° 0 mm 1 mps 722 mmHg 63%
    10:00 +22°C° 0 mm 1 mps 723 mmHg 58%
    11:00 +24°C° 0 mm 1 mps 723 mmHg 53%
    12:00 +24°C° 0.1 mm 1 mps 723 mmHg 53%
    13:00 +24°C° 0.1 mm 1 mps 722 mmHg 53%
    14:00 +25°C° 0.1 mm 1 mps 722 mmHg 54%
    15:00 +24°C° 0.1 mm 1 mps 722 mmHg 54%
    16:00 +24°C° 0.1 mm 1 mps 722 mmHg 55%
    17:00 +24°C° 0.1 mm 1 mps 722 mmHg 56%
    18:00 +23°C° 0.1 mm 1 mps 722 mmHg 62%
    19:00 +21°C° 0.1 mm 1 mps 722 mmHg 69%
    20:00 +19°C° 0.1 mm 1 mps 722 mmHg 75%
    21:00 +18°C° 0 mm 1 mps 722 mmHg 80%
    22:00 +16°C° 0 mm 1 mps 722 mmHg 85%
    23:00 +15°C° 0 mm 1 mps 722 mmHg 90%
    Show more